[[{"header":{"parameterUnit":"m.s-1","parameterCategory":1,"la1":30.2991,"la2":30.254,"lo1":-89.0895,"lo2":-89.0444,"dy":0.0017,"dx":0.0017,"nx":28,"ny":28,"refTime":"2024-07-04T03:00:00:Z","depth":0,"parameterNumber":2,"parameterNumberName":"U-component_of_WINDS"},"data":[0,0,0,0,0,0,0,0,0,0,0,0,0,0,0,0,0,0,0,0,0,0,0,0,0,0,0,0,0,0,0,0,0,0,0,0,0,0,0,0,0,0,0,0,0,0,0,0,0,0,0,0,0,0,0,0,0,0,1.2418,1.2418,0,1.2395,1.2395,1.2395,1.2325,1.2324,1.2322,1.2321,1.2298,1.2299,1.2299,0,0,0,0,0,0,0,0,0,0,0,0,0,1.2401,1.2401,1.2418,1.2418,1.2417,1.2395,1.2395,1.2395,1.2325,1.2324,1.2322,1.232,1.2298,1.2299,1.23,0,0,0,0,0,0,0,0,0,0,0,0,0,1.2396,1.2402,1.2418,1.238,1.2377,1.2395,1.2395,1.2395,1.2326,1.2323,1.2321,1.2319,1.2297,1.2298,1.23,1.2353,0,0,1.2303,1.2304,0,0,0,0,0,0,0,0,1.2397,1.2397,1.2386,1.2383,1.2379,1.2361,1.238,1.2381,1.2326,1.2345,1.2321,1.2318,1.2321,1.232,1.2321,1.2352,1.2351,1.2304,1.2304,1.2305,1.2305,0,0,0,0,0,0,0,1.2397,1.2398,1.2409,1.2386,1.2382,1.2364,1.2361,1.238,1.2346,1.2343,1.2338,1.2336,1.2318,1.232,1.232,1.2351,1.2304,1.2305,1.2305,1.2306,1.2423,1.2425,0,0,0,0,0,0,1.2403,1.2398,1.241,1.2408,1.2382,1.2366,1.2363,1.2369,1.2346,1.234,1.2338,1.2333,1.2319,1.2318,1.2318,1.2378,1.2305,1.2306,1.2307,1.2421,1.2424,1.2426,0,0,0,0,0,0,1.2403,1.2404,1.2411,1.2402,1.2401,1.2369,1.2376,1.237,1.2371,1.2342,1.2335,1.2346,1.2317,1.2317,1.2345,1.2376,1.2307,1.2308,1.2418,1.2422,1.2425,1.2498,0,0,0,0,0,0,1.2402,1.2405,1.2425,1.2403,1.2402,1.2438,1.2378,1.2371,1.2373,1.2366,1.2347,1.2342,1.2315,1.2343,1.2346,1.2377,1.2309,1.2415,1.242,1.2424,1.2493,1.2504,1.2514,0,0,0,0,0,1.2402,1.2447,1.2427,1.2428,1.2427,1.244,1.2439,1.2407,1.2376,1.2396,1.2377,1.2343,1.2373,1.2347,1.2349,1.2381,1.2413,1.2418,1.2423,1.2488,1.2502,1.2513,0,0,0,0,0,0,1.2475,1.2444,1.242,1.246,1.2453,1.2428,1.2452,1.2422,1.2424,1.2418,1.2377,1.2374,1.2407,1.2397,1.2368,1.243,1.2387,1.2393,1.2435,1.2448,1.2458,1.2459,1.231,0,0,0,0,0,1.2496,1.2509,1.2481,1.2518,1.2516,1.2485,1.2489,1.2465,1.2456,1.2452,1.2436,1.2428,1.2436,1.2442,1.2447,1.2492,1.2485,1.2514,1.2525,1.2533,1.2538,1.2559,1.2571,1.2444,1.2444,1.2444,0,0,1.2538,1.2523,1.2534,1.2532,1.2524,1.2538,1.2483,1.25,1.2509,1.2455,1.248,1.2467,1.2456,1.2492,1.2507,1.2485,1.2572,1.254,1.2547,1.2548,1.2566,1.2578,1.2589,1.2447,1.2447,1.2446,0,0,1.2623,1.2614,1.2642,1.2635,1.2622,1.2601,1.2608,1.2588,1.2577,1.2601,1.256,1.2571,1.2585,1.2578,1.2576,1.2657,1.2625,1.266,1.2713,1.2734,1.2744,1.2752,1.2779,1.2789,1.2666,1.2666,1.2666,0,1.2678,1.2697,1.2661,1.268,1.268,1.2631,1.266,1.2654,1.2645,1.2646,1.2621,1.2636,1.2626,1.2658,1.2677,1.2679,1.2684,1.2661,1.2745,1.2753,1.2761,1.2786,1.2796,1.267,1.267,1.2669,1.2669,0,1.2763,1.2777,1.2802,1.2793,1.2796,1.282,1.2788,1.2795,1.277,1.2751,1.2776,1.2761,1.2761,1.2768,1.2744,1.2797,1.2783,1.2752,1.2708,1.2778,1.2801,1.281,1.2676,1.2675,1.2673,1.2672,0,0,1.2893,1.2863,1.2873,1.2867,1.2849,1.2859,1.288,1.288,1.2886,1.2882,1.2897,1.291,1.2881,1.2879,1.2854,1.2873,1.2935,1.284,1.2839,1.2856,1.2989,1.3011,1.3023,1.2914,1.2916,1.2917,1.299,0,1.2971,1.3005,1.2974,1.3014,1.3025,1.2978,1.2996,1.2987,1.297,1.2977,1.2958,1.2967,1.2929,1.2927,1.2944,1.2924,1.2961,1.2919,1.2927,1.2928,1.293,1.3035,1.3059,1.3127,1.2998,1.3,1.3001,0,1.3067,1.3065,1.3106,1.3084,1.3088,1.3105,1.3101,1.3109,1.3097,1.3083,1.3081,1.305,1.3069,1.3026,1.305,1.3022,1.3024,1.3015,1.3017,1.3015,1.2968,1.3034,1.3149,1.3159,1.3015,1.3014,1.3013,0,1.3155,1.3163,1.3188,1.3185,1.316,1.3173,1.3163,1.3149,1.3151,1.3148,1.3148,1.3148,1.3147,1.3148,1.3117,1.309,1.3145,1.31,1.3133,1.3133,1.3145,1.3144,1.326,1.315,1.3149,1.3149,1.3149,0,1.3244,1.3271,1.3226,1.3242,1.327,1.3233,1.3261,1.3247,1.3235,1.3246,1.3206,1.3217,1.3177,1.3184,1.3161,1.3183,1.3184,1.3172,1.3166,1.3175,1.3176,1.3174,1.3168,1.3152,1.3151,1.3151,1.315,0,1.3347,1.3318,1.3342,1.3316,1.331,1.3332,1.331,1.3322,1.3302,1.3317,1.3318,1.3287,1.3293,1.3263,1.3264,1.3248,1.3281,1.3267,1.3285,1.328,1.3313,1.331,1.343,1.3443,1.3327,1.3328,1.3329,0,1.3405,1.3424,1.34,1.3404,1.3396,1.3404,1.3405,1.3369,1.3372,1.3359,1.3373,1.3376,1.3375,1.3387,1.3364,1.3364,1.3348,1.3391,1.3348,1.3356,1.3347,1.3345,1.3346,1.3399,1.34,1.3402,1.3403,0,1.351,1.3495,1.3497,1.3495,1.3497,1.3494,1.3487,1.3493,1.3455,1.3459,1.3464,1.3464,1.3465,1.3467,1.3462,1.3452,1.342,1.3416,1.3423,1.3432,1.3441,1.3434,1.3307,1.3413,1.3412,1.3411,1.3411,1.341,1.3591,1.3604,1.3589,1.3593,1.3585,1.3579,1.3589,1.357,1.3574,1.3571,1.355,1.3558,1.3545,1.3535,1.3527,1.3533,1.3513,1.3524,1.3526,1.3529,1.3534,1.3441,1.3533,1.3532,1.3532,1.3532,1.3531,0,1.3692,1.368,1.3684,1.3676,1.3679,1.3649,1.364,1.3644,1.3652,1.3642,1.3643,1.3648,1.365,1.3627,1.3625,1.3634,1.362,1.3635,1.3633,1.3631,1.3553,1.3546,1.3647,1.3647,1.3647,1.3647,1.3647,1.3647,1.3745,1.3766,1.3749,1.3765,1.3753,1.376,1.3758,1.3752,1.3744,1.3751,1.3752,1.3737,1.3721,1.3718,1.3718,1.3712,1.3712,1.3732,1.372,1.3648,1.3637,1.3626,1.3619,1.3733,1.3733,1.3797,1.3797,1.3798]},{"header":{"parameterUnit":"m.s-1","parameterCategory":1,"la1":30.2991,"la2":30.254,"lo1":-89.0895,"lo2":-89.0444,"dy":0.0017,"dx":0.0017,"nx":28,"ny":28,"refTime":"2024-07-04T03:00:00:Z","depth":0,"parameterNumber":3,"parameterNumberName":"V-component_of_WINDS"},"data":[0,0,0,0,0,0,0,0,0,0,0,0,0,0,0,0,0,0,0,0,0,0,0,0,0,0,0,0,0,0,0,0,0,0,0,0,0,0,0,0,0,0,0,0,0,0,0,0,0,0,0,0,0,0,0,0,0,0,4.7183,4.7183,0,4.7239,4.7239,4.724,4.7189,4.7187,4.7185,4.7183,4.7235,4.7238,4.7242,0,0,0,0,0,0,0,0,0,0,0,0,0,4.7025,4.7028,4.7182,4.7183,4.7184,4.7239,4.7239,4.724,4.719,4.7187,4.7185,4.7182,4.7234,4.7238,4.7242,0,0,0,0,0,0,0,0,0,0,0,0,0,4.7088,4.7029,4.7182,4.7165,4.7164,4.7238,4.7239,4.724,4.719,4.7187,4.7184,4.7181,4.7233,4.7238,4.7242,4.7334,0,0,4.7257,4.726,0,0,0,0,0,0,0,0,4.7085,4.7094,4.7167,4.7167,4.7166,4.7204,4.7203,4.7272,4.7191,4.718,4.7183,4.718,4.7227,4.7232,4.7249,4.7337,4.7339,4.7258,4.7261,4.7263,4.7264,0,0,0,0,0,0,0,4.708,4.7091,4.7204,4.7168,4.7167,4.7153,4.7158,4.7216,4.722,4.7181,4.7177,4.7185,4.7226,4.7245,4.725,4.734,4.7258,4.7262,4.7265,4.7267,4.7503,4.7506,0,0,0,0,0,0,4.7078,4.7088,4.7203,4.7206,4.7117,4.7158,4.7164,4.7195,4.7219,4.722,4.7188,4.7182,4.7238,4.7244,4.7252,4.7359,4.7263,4.7268,4.727,4.75,4.7504,4.7507,0,0,0,0,0,0,4.7075,4.7089,4.72,4.7146,4.7159,4.7164,4.7198,4.7197,4.7216,4.7224,4.7224,4.7206,4.7235,4.7245,4.7314,4.736,4.727,4.7274,4.7496,4.7501,4.7505,4.7576,0,0,0,0,0,0,4.7071,4.7088,4.7125,4.7147,4.7162,4.7264,4.7201,4.7201,4.7225,4.7219,4.7242,4.7243,4.7234,4.7307,4.7319,4.7365,4.7278,4.7491,4.7498,4.7504,4.7569,4.7583,4.7594,0,0,0,0,0,4.7066,4.7142,4.7127,4.7141,4.7209,4.7267,4.7275,4.7265,4.723,4.7265,4.727,4.7242,4.7354,4.7314,4.7327,4.7376,4.7488,4.7496,4.7503,4.7564,4.758,4.7594,0,0,0,0,0,0,4.7123,4.7145,4.7128,4.7215,4.724,4.7258,4.7303,4.7283,4.7317,4.7309,4.7294,4.7299,4.7372,4.7381,4.7337,4.7465,4.7415,4.7425,4.7456,4.7472,4.7484,4.7479,4.7282,0,0,0,0,0,4.7146,4.7194,4.7209,4.7284,4.7297,4.7298,4.7323,4.7313,4.7337,4.7347,4.7357,4.738,4.742,4.7447,4.7484,4.7571,4.7574,4.7611,4.7623,4.7633,4.7641,4.7686,4.7702,4.7532,4.7531,4.7531,0,0,4.7193,4.7211,4.7242,4.7296,4.7314,4.7361,4.7307,4.736,4.7394,4.7354,4.742,4.7429,4.7453,4.7531,4.7566,4.7541,4.7689,4.7642,4.765,4.7653,4.7695,4.7711,4.7725,4.7537,4.7536,4.7535,0,0,4.7304,4.7323,4.7387,4.7406,4.7434,4.7434,4.745,4.7471,4.7476,4.7542,4.7513,4.7552,4.7622,4.764,4.7659,4.7775,4.7749,4.7788,4.7851,4.7894,4.7908,4.7919,4.7959,4.7973,4.7796,4.7797,4.7797,0,4.7358,4.7431,4.7421,4.7476,4.7499,4.7467,4.753,4.7548,4.7587,4.7603,4.7575,4.7661,4.7675,4.7756,4.7784,4.7801,4.7816,4.7784,4.7907,4.7919,4.7929,4.7967,4.7982,4.7801,4.78,4.78,4.78,0,4.7495,4.7546,4.7593,4.7633,4.7661,4.772,4.7717,4.7747,4.7734,4.7736,4.7803,4.7819,4.7858,4.7877,4.7865,4.7956,4.7939,4.791,4.7858,4.795,4.7985,4.7999,4.7807,4.7805,4.7804,4.7803,0,0,4.7643,4.7677,4.7694,4.7711,4.7739,4.7777,4.7833,4.7873,4.7898,4.7925,4.797,4.803,4.8002,4.8023,4.8012,4.8051,4.8139,4.8016,4.8016,4.8036,4.8237,4.8258,4.8275,4.8123,4.8126,4.8128,4.8234,0,4.7753,4.7852,4.7844,4.7937,4.7982,4.7952,4.8,4.8021,4.8025,4.8062,4.8064,4.8106,4.8068,4.808,4.8117,4.8121,4.8179,4.8113,4.8162,4.8164,4.8155,4.8293,4.8316,4.8416,4.8248,4.8251,4.8252,0,4.7894,4.7928,4.8025,4.8046,4.8064,4.8108,4.8143,4.818,4.8203,4.8202,4.8226,4.8208,4.8262,4.8211,4.8284,4.8239,4.8258,4.8263,4.8267,4.8269,4.8212,4.8298,4.8447,4.8462,4.8274,4.8272,4.8271,0,4.7989,4.8059,4.8126,4.8141,4.8168,4.8199,4.8211,4.8231,4.8255,4.8285,4.83,4.8336,4.8355,4.8382,4.8374,4.8338,4.8447,4.8396,4.8446,4.8446,4.8469,4.8467,4.8622,4.8485,4.8485,4.8484,4.8484,0,4.8112,4.8172,4.8169,4.821,4.8276,4.8265,4.833,4.8338,4.8356,4.8396,4.8372,4.841,4.8398,4.8434,4.8428,4.8488,4.8497,4.8496,4.8493,4.8497,4.8497,4.8509,4.8501,4.8488,4.8487,4.8487,4.8486,0,4.8229,4.823,4.83,4.8319,4.8326,4.8373,4.8388,4.8425,4.8427,4.8478,4.8489,4.8491,4.8533,4.8528,4.8574,4.857,4.8643,4.8633,4.8636,4.8633,4.8682,4.8677,4.8848,4.8869,4.8721,4.8722,4.8723,0,4.8306,4.8352,4.8376,4.8402,4.8417,4.8459,4.8483,4.8474,4.8501,4.853,4.8563,4.8603,4.8634,4.8701,4.8705,4.874,4.8729,4.8787,4.8734,4.8736,4.8728,4.8724,4.8728,4.8797,4.8798,4.88,4.8801,0,4.8442,4.844,4.8478,4.8515,4.8545,4.8574,4.86,4.8622,4.8615,4.8645,4.8688,4.8713,4.876,4.8799,4.8832,4.8841,4.8819,4.8818,4.8831,4.8834,4.8833,4.8832,4.8662,4.8813,4.8812,4.8811,4.8811,4.881,4.854,4.8579,4.8602,4.8644,4.8662,4.8687,4.8723,4.8729,4.8765,4.8804,4.8796,4.8844,4.8864,4.8906,4.8919,4.8955,4.8933,4.8953,4.8957,4.8962,4.8967,4.8829,4.8961,4.896,4.896,4.896,4.896,0,4.8673,4.8687,4.8726,4.8763,4.8795,4.8774,4.8801,4.8829,4.8872,4.8893,4.8925,4.8973,4.901,4.9018,4.9053,4.908,4.907,4.9089,4.9086,4.9088,4.8985,4.8969,4.9096,4.9096,4.9096,4.9096,4.9096,4.9096,4.8746,4.881,4.881,4.8882,4.8894,4.8942,4.8959,4.8981,4.8997,4.9053,4.9085,4.909,4.9105,4.9141,4.9173,4.9174,4.9187,4.9209,4.9206,4.9109,4.9096,4.9082,4.9068,4.9213,4.9213,4.9306,4.9307,4.9308]}]]